Regional Weather Roundup
Issued by NWS

Home | Current Version | Previous Version | Graphics & Text | Print | Product List | Glossary On
Versions: 1 2 3 4 5 6 7 8 9 10 11 12 13 14 15 16 17 18 19 20 21 22 23 24 25 26 27 28 29 30 31 32 33 34 35 36 37 38 39 40 41 42 43 44 45 46 47 48 49 50
000
ASUS43 KDTX 270310
RWRMI
MICHIGAN HOURLY REGIONAL WEATHER ROUNDUP
NATIONAL WEATHER SERVICE DETROIT/PONTIAC MI
1100 PM EDT SUN MAR 26 2017

NOTE: "FAIR" INDICATES FEW OR NO CLOUDS BELOW 12,000 FEET WITH NO
SIGNIFICANT WEATHER AND/OR OBSTRUCTION TO VISIBILITY.

MIZ047>049-052>055-059>063-066>070-074>076-081>083-270400-
SOUTHEAST LOWER MICHIGAN

CITY           SKY/WX    TMP DP  RH WIND       PRES   REMARKS
ADRIAN         FOG       48  48 100 S6        29.89F VSB 1/4
ALMA           FOG       46  46 100 N5        29.86F VSB 1/2
ANN ARBOR      CLOUDY    48  48 100 SE3       29.88F FOG
BAD AXE        FOG       47  47 100 S7        29.87F VSB 3/4
CARO           CLOUDY    49  49  99 S3        29.87S FOG
DETROIT CITY   LGT RAIN  48  48 100 CALM      29.89F FOG
DETROIT        CLOUDY    49  48  97 CALM      29.90F FOG
FLINT          CLOUDY    50  49  96 S5        29.88S FOG
GROSSE ILE     LGT RAIN  46  45  99 CALM      29.88F
HILLSDALE      RAIN      50  50 100 S5        29.87F
HOWELL         CLOUDY    50  49  94 S3        29.87F FOG

CITY           SKY/WX    TMP DP  RH WIND       PRES   REMARKS
JACKSON        MOCLDY    50  49  96 CALM      29.87F FOG
LAMBERTVILLE   CLOUDY    52  50  94 S3        29.89F FOG
LANSING        CLOUDY    52  49  89 S8        29.87S FOG
LAPEER         FOG       48  48  98 CALM      29.88S VSB 3/4
MASON          CLOUDY    51  51  99 S6        29.87F FOG
MONROE         LGT RAIN  49  49 100 S12       29.88F
MT. CLEMENS    CLOUDY    45  45 100 SE6       29.88F FOG
PONTIAC        FOG       47  45  93 SE3       29.88S VSB 1/4
PORT HOPE        N/A     46  45  96 SE6       29.85F
PORT HURON     FOG       48  46  93 SE7       29.90F VSB 1
TRI CITIES     CLOUDY    41  41 100 NE3       29.87S FOG
MIDLAND        SNOW      43  42  97 CALM      29.86F VSB 1/4
TROY           FOG       47  46  95 CALM      29.90F VSB 1/4
SAGINAW HB     CLOUDY    45  43  93 CALM      29.86S FOG
$$
MIZ043>046-050>051-056>058-064>065-071>073-077>080-270400-
SOUTHWEST LOWER MICHIGAN

CITY           SKY/WX    TMP DP  RH WIND       PRES   REMARKS
BATTLE CREEK   CLOUDY    53  53 100 S6        29.87F
BENTON HARBOR  CLOUDY    53  49  86 W13       29.88R
BIG RAPIDS     FOG       43  42  95 CALM      29.85S VSB 3/4
COLDWATER      LGT RAIN  53  53 100 S3        29.88S
FREMONT        CLOUDY    47  47 100 CALM      29.84F FOG
HOLLAND        CLOUDY    53  51  93 SW7       29.86S FOG
GRAND RAPIDS   CLOUDY    52  52 100 S8        29.85S FOG
IONIA          CLOUDY    50  50  99 S5        29.85S
KALAMAZOO      FOG       49  47  93 SW6       29.87F VSB 1
LUDINGTON      FOG       43  43 100 W3        29.84S VSB 1/4
MARSHALL       CLOUDY    54  53  97 S3        29.87S FOG
MOUNT PLEASANT FOG       43  42  97 CALM      29.86S VSB 1/2
MUSKEGON       FOG       50  49  96 SW6       29.85S VSB 1/4
SOUTH HAVEN    CLOUDY    53  51  93 SW6       29.86S
$$
MIZ016>042-270400-
NORTHERN LOWER MICHIGAN

CITY           SKY/WX    TMP DP  RH WIND       PRES   REMARKS
ALPENA         FOG       37  37 100 CALM      29.87S VSB 3/4
BEAVER ISLAND  CLOUDY    34  34 100 E5        29.86S FOG     WCI  30
BELLAIRE       CLOUDY    42  41  95 CALM      29.85F FOG
CADILLAC       FOG       42  41  97 CALM      29.84S VSB 3/4
CHARLEVOIX     FOG       39  39 100 E3        29.87F VSB 1
FRANKFORT      FOG       46  44  92 CALM      29.84S VSB 1
GAYLORD        FOG       41  37  86 S3        29.83F VSB 1/2
GRAYLING       FOG       39  39 100 CALM      29.85F VSB 1/4
HARBOR SPRINGS CLOUDY    36  36 100 NE6       29.86S FOG     WCI  31
HOUGHTON LAKE  FOG       41  40  96 CALM      29.85F VSB 3/4
MANISTEE       LGT RAIN  45  45 100 CALM      29.84R VSB 1/2
OSCODA         FOG       38  37  97 W6        29.87S VSB 1/2 WCI  34
PELLSTON       CLOUDY    36  34  92 CALM      29.86F FOG
ROGERS CITY    CLOUDY    36  35  96 CALM        N/A  FOG
TRAVERSE CITY  CLOUDY    43  42  97 CALM      29.84S FOG
$$
MIZ007>008-015-270400-
EASTERN UPPER MICHIGAN

CITY           SKY/WX    TMP DP  RH WIND       PRES   REMARKS
KINROSS        MIX PCPN  33  32  96 E8        29.87F WCI  26
MACKINAC ISLAN MIX PCPN  33  33 100 E9G17     29.85F WCI  26
NEWBERRY       MIX PCPN  32  31  96 N3        29.87S
S. S. MARIE    LGT RAIN  34  33  96 E6        29.88F WCI  29
MUNISING         N/A     34  34 100 CALM      29.88F
$$
MIZ004>006-011>014-085-270400-
CENTRAL UPPER MICHIGAN

CITY           SKY/WX    TMP DP  RH WIND       PRES   REMARKS
MANISTIQUE     LGT RAIN  34  32  93 N3        29.87S
ESCANABA       FOG       35  35 100 CALM      29.88F VSB 1
MENOMINEE        N/A    N/A N/A N/A MISG        N/A
SAWYER-GWINN   MIX PCPN  32  32  99 N5        29.87S WCI  28
$$
MIZ001>003-009>011-084-270400-
WESTERN UPPER MICHIGAN

CITY           SKY/WX    TMP DP  RH WIND       PRES   REMARKS
IRON MOUNTAIN  LGT RAIN  36  33  89 CALM      29.86S FOG
HOUGHTON       CLOUDY    33  31  92 NW3       29.89F
COPPER HARBOR    N/A     34  33  96 NE6       29.91F WCI  29
IRONWOOD       FOG       32  30  93 NW3       29.93S VSB 3/4
$$

ABBREVIATIONS USED IN REMARKS
   TC - TEMPERATURE IN CELSIUS
  WCI - WIND CHILL INDEX
   HX - HEAT INDEX
  VSB - VISIBILITY





USA.gov is the U.S. government's official web portal to all federal, state and local government web resources and services.